Regional Weather Roundup
Issued by NWS

Home | Current Version | Previous Version | Graphics & Text | Print | Product List | Glossary On
Versions: 1 2 3 4 5 6 7 8 9 10 11 12 13 14 15 16 17 18 19 20 21 22 23 24 25 26 27 28 29 30 31 32 33 34 35 36 37 38 39 40 41 42 43 44 45 46 47 48 49 50
000
ASUS43 KIND 271409
RWRIN

WEATHER ROUNDUP FOR INDIANA
NATIONAL WEATHER SERVICE INDIANAPOLIS IN
1000 AM EDT SAT MAY 27 2017

NOTE: "FAIR" INDICATES FEW OR NO CLOUDS BELOW 12,000 FEET WITH NO
SIGNIFICANT WEATHER AND/OR OBSTRUCTIONS TO VISIBILITY.

* - STATION DOES NOT REPORT WEATHER SUCH AS PRECIPITATION OR FOG.

+ - STATION NOT QUALITY CONTROLLED BY THE NATIONAL WEATHER SERVICE.
    USE DATA WITH CAUTION...ESPECIALLY DEWPOINT AND RELATIVE
    HUMIDITY OBSERVATIONS.

INZ001>003-010>013-019-020-271500-
NORTHWEST INDIANA

CITY           SKY/WX    TMP DP  RH WIND       PRES   REMARKS
GARY /AIRPORT/ PTSUNNY   59  54  82 N3        29.94R
KNOX *+        CLOUDY    59  55  88 N7        29.91S
LA PORTE +     CLOUDY    60  58  95 N6        29.93S FOG
MICHIGAN CITY+ CLOUDY    57  57 100 N5        29.93S
MONTICELLO +   CLOUDY    62  61  96 NW6       29.90S FOG
RENSSELAER +   CLOUDY    63  59  88 N6        29.91S
VALPARAISO     CLOUDY    62  59  90 N7        29.93R

$$

LMZ046-743>745-271500-
SOUTHERN LAKE MICHIGAN

STATION/POSITION TIME  TEMP    WIND        PRES    WAVE
                       AIR SEA DIR/SP/G            HT
                 (UTC) (F)     (DEG/KT/KT) (MB)    (FT)
BURNS HARBOR     1401   54      CALM  /  5 1014.2
MICHIGAN CITY    1340   53      40/  6/  6   N/A
5NW MICH CITY    1400   52 54   40/  6/  6   N/A     1

$$

INZ004-005-014>016-021>024-271500-
NORTH CENTRAL INDIANA

CITY           SKY/WX    TMP DP  RH WIND       PRES   REMARKS
ELKHART        CLOUDY    63  59  88 NW6       29.92R
GOSHEN         CLOUDY    64  57  78 E3        29.91R
LOGANSPORT +   CLOUDY    63  61  94 NW5       29.91R FOG
ROCHESTER +    CLOUDY    63  63 100 NW3       29.92R FOG
SOUTH BEND     CLOUDY    61  59  93 N7        29.92R
WARSAW +       CLOUDY    61  59  94 CALM      29.90R

$$

INZ006>009-017-018-025>027-271500-
NORTHEAST INDIANA

CITY           SKY/WX    TMP DP  RH WIND       PRES   REMARKS
AUBURN +       CLOUDY    63  59  88 CALM      29.90S
FORT WAYNE     CLOUDY    64  60  87 E6        29.89R
HUNTINGTON +   CLOUDY    63  62  96 CALM      29.89R
KENDALLVILLE + CLOUDY    63  61  92 E6        29.90S

$$

INZ028-029-035-036-043>045-051>053-271500-
WEST CENTRAL INDIANA

CITY           SKY/WX    TMP DP  RH WIND       PRES   REMARKS
CRAWFORDSVL +  CLOUDY   -35 -35 100 N9        29.88F FOG     WCI -58
GREENCASTLE +  CLOUDY    66  61  82 N6        29.89R
LAFAYETTE      CLOUDY    62  61  96 NW6       29.89S
TERRE HAUTE    CLOUDY    69  62  78 N7        29.88S

$$

INZ030>032-037>040-046>048-054>057-064-065-271500-
CENTRAL INDIANA

CITY           SKY/WX    TMP DP  RH WIND       PRES   REMARKS
ANDERSON       PTSUNNY  N/A N/A N/A SW6       29.87F
CP ATTERBURY + PTSUNNY   73  64  73 CALM      29.87F
COLUMBUS       CLOUDY    73  64  73 SW6       29.87F
FISHERS *+     PTSUNNY   66  66 100 NW5       29.87F
FRANKFORT +    CLOUDY    65  64  94 N7        29.91S FOG
GREENWOOD *+   CLOUDY    72  65  80 NW8       29.87S
INDIANAPOLIS   CLOUDY    69  64  84 NW10      29.87R
-EAGLE CREEK   CLOUDY    68  62  81 N6        29.87S
KOKOMO +       CLOUDY    64  62  93 N6        29.89S FOG
MARION +       CLOUDY    64  63  94 NW6       29.89R FOG
MT COMFORT *+    N/A    N/A N/A N/A MISG        N/A
SHELBYVILLE    CLOUDY    74  65  73 W7        29.85F
ZIONSVILLE +   CLOUDY    65  63  92 NW8       29.88F

$$

INZ033-034-041-042-049-050-058-059-271500-
EAST CENTRAL INDIANA

CITY           SKY/WX    TMP DP  RH WIND       PRES   REMARKS
MUNCIE         CLOUDY    71  65  81 W6        29.87S
RICHMOND +     CLOUDY    68  64  88 W10       29.89F

$$

INZ060-061-067>069-081>083-085>088-271500-
SOUTHWEST INDIANA

CITY           SKY/WX    TMP DP  RH WIND       PRES   REMARKS
EVANSVILLE     CLOUDY    74  68  81 CALM      29.88S HAZE
HUNTINGBURG *+ CLOUDY    72  69  90 SE5       29.89R
WASHINGTON +   CLOUDY    70  67  91 CALM      29.87F

$$

INZ062-063-066-070>080-084-089>092-271500-
SOUTH CENTRAL AND SOUTHEAST INDIANA

CITY           SKY/WX    TMP DP  RH WIND       PRES   REMARKS
BEDFORD +      CLOUDY    73  66  78 SW3       29.87F
BLOOMINGTON    CLOUDY    73  65  75 SW6       29.87S
MADISON *+     CLOUDY    72  66  83 SW5       29.91S
NORTH VERNON + CLOUDY    70  66  88 SW7       29.89S
SEYMOUR +      CLOUDY    75  66  73 W3        29.88S

$$





USA.gov is the U.S. government's official web portal to all federal, state and local government web resources and services.